Mullan Pass, ID

1:45 PM PDT on October 20, 2017 (GMT -0700)
Mullan Pass

Weather History for KMLP - March, 2013

Change the Weather History Date:

Friday, March 15, 2013

  Actual Average (K3TH) Record (K3TH)
Temperature  
Mean Temperature 34 °F -  
Max Temperature 37 °F 45 °F 52 °F (1999)
Min Temperature 30 °F 29 °F 19 °F (1997)
Degree Days  
Heating Degree Days 32    
Moisture  
Dew Point 31 °F    
Average Humidity 95    
Maximum Humidity 100    
Minimum Humidity 65    
Precipitation  
Precipitation 0.20 in - - ()
Sea Level Pressure  
Sea Level Pressure 30.03 in    
Wind  
Wind Speed 6 mph (West)    
Max Wind Speed 10 mph    
Max Gust Speed 21 mph    
Visibility 5 miles    
Events Fog , Rain , Snow    
Averages and records for this station are not official NWS values.
T = Trace of Precipitation, MM = Missing Value Source: NWS Daily Summary

Daily Weather History Graph

Daily Weather History Graph

Search for Another Location

Airport or City:

Trip Planner

Search our weather history database for the weather conditions in past years. The results will help you decide how hot, cold, wet, or windy it might be!

Date:

Astronomy

Mar. 15, 2013 Rise Set
Actual Time 6:55 AM PDT 6:48 PM PDT
Civil Twilight 6:24 AM PDT 7:19 PM PDT
Nautical Twilight 5:48 AM PDT 7:55 PM PDT
Astronomical Twilight 5:12 AM PDT 8:31 PM PDT
Moon 8:29 AM PDT (3/15) 11:27 PM PDT (3/15)
Length of Visible Light 12h 54m
Length of Day
11h 53m
Waxing Crescent, 16% of the Moon is Illuminated
Mar 15
Waxing Crescent
Mar 19
First Quarter
Mar 27
Full
Apr 2
Last Quarter
Apr 10
New

Hourly Weather History & Observations

Time (PDT) Temp. Windchill Dew Point Humidity Pressure Visibility Wind Dir Wind Speed Gust Speed Precip Events Conditions
12:53 AM 37.0 °F 30.4 °F 27.0 °F 67% 29.88 in 10.0 mi West 9.2 mph 20.7 mph N/A   Overcast
1:00 AM 37.4 °F 30.3 °F 26.6 °F 65% 30.03 in - West 10.4 mph 20.7 mph N/A   Overcast
1:53 AM 34.0 °F 26.6 °F 28.9 °F 82% 29.89 in 10.0 mi WSW 9.2 mph 19.6 mph N/A   Overcast
2:53 AM 34.0 °F 28.0 °F 28.0 °F 79% 29.90 in 10.0 mi Variable 6.9 mph 19.6 mph N/A   Overcast
3:53 AM 33.1 °F 26.9 °F 28.0 °F 82% 29.92 in 10.0 mi Variable 6.9 mph - N/A   Overcast
4:53 AM 32.0 °F 25.6 °F 28.9 °F 88% 29.93 in 10.0 mi Variable 6.9 mph - N/A   Overcast
5:53 AM 32.0 °F 26.4 °F 28.9 °F 88% 29.94 in 10.0 mi Variable 5.8 mph - N/A   Overcast
6:04 AM 32.0 °F 25.6 °F 28.4 °F 87% 30.05 in 10.0 mi Variable 6.9 mph - N/A   Overcast
6:53 AM 32.0 °F 27.5 °F 28.9 °F 88% 29.95 in 10.0 mi Variable 4.6 mph - N/A   Overcast
7:31 AM 30.2 °F 26.7 °F 30.2 °F 100% 30.06 in 10.0 mi Variable 3.5 mph - N/A   Overcast
7:53 AM 30.9 °F 25.2 °F 30.0 °F 96% 29.96 in 10.0 mi Variable 5.8 mph - N/A   Overcast
8:21 AM 30.2 °F 22.6 °F 30.2 °F 100% 30.07 in 1.5 mi WSW 8.1 mph - N/A   Overcast
8:27 AM 30.2 °F 22.6 °F 30.2 °F 100% 30.07 in 0.8 mi WSW 8.1 mph - N/A   Overcast
8:39 AM 30.2 °F 22.6 °F 30.2 °F 100% 30.07 in 0.2 mi WSW 8.1 mph - N/A Fog Light Freezing Fog
8:53 AM 30.9 °F 24.3 °F 30.9 °F 100% 29.97 in 0.2 mi SW 6.9 mph - 0.00 in Fog , Snow Light Snow
9:05 AM 30.2 °F 22.6 °F 30.2 °F 100% 30.08 in - WSW 8.1 mph - 0.00 in Snow Light Snow
9:39 AM 30.2 °F 24.3 °F 30.2 °F 100% 30.09 in 0.2 mi Variable 5.8 mph - 0.00 in Fog , Rain Light Freezing Rain
9:53 AM 30.9 °F - 30.9 °F 100% 30.00 in - Calm Calm - 0.00 in Snow Light Snow
10:24 AM 32.0 °F 28.7 °F 32.0 °F 100% 30.10 in - Variable 3.5 mph - 0.00 in Snow Light Snow
10:41 AM 32.0 °F 28.7 °F 32.0 °F 100% 30.10 in 0.2 mi West 3.5 mph - 0.00 in Fog , Snow Light Snow
10:51 AM 32.0 °F 27.5 °F 30.2 °F 93% 30.10 in 0.8 mi Variable 4.6 mph - 0.00 in Snow Light Snow
10:53 AM 32.0 °F 28.7 °F 30.9 °F 96% 29.99 in 1.0 mi Variable 3.5 mph - 0.00 in Snow Light Snow
11:15 AM 32.0 °F 28.7 °F 32.0 °F 100% 30.10 in 2.0 mi Variable 3.5 mph - 0.00 in Snow Light Snow
11:30 AM 32.0 °F - 32.0 °F 100% 30.10 in 1.2 mi Calm Calm - 0.00 in Snow Light Snow
11:43 AM 32.0 °F 28.7 °F 32.0 °F 100% 30.10 in 0.2 mi Variable 3.5 mph - 0.00 in Fog Fog
11:47 AM 32.0 °F 27.5 °F 32.0 °F 100% 30.10 in - Variable 4.6 mph - 0.00 in   Overcast
11:53 AM 33.1 °F 30.0 °F 32.0 °F 96% 30.00 in - Variable 3.5 mph - 0.00 in   Overcast
12:15 PM 32.0 °F - 32.0 °F 100% 30.10 in 0.5 mi Calm Calm - 0.01 in Fog , Snow Light Snow
12:50 PM 32.0 °F - 32.0 °F 100% 30.10 in 1.5 mi Calm Calm - 0.02 in Snow Light Snow
12:53 PM 32.0 °F 28.7 °F 32.0 °F 100% 30.01 in 2.5 mi Variable 3.5 mph - 0.02 in   Overcast
1:03 PM 32.0 °F 25.6 °F 32.0 °F 100% 30.10 in 1.2 mi Variable 6.9 mph - 0.00 in Snow Light Snow
1:12 PM 32.0 °F 27.5 °F 32.0 °F 100% 30.10 in 2.0 mi Variable 4.6 mph - 0.01 in Snow Light Snow
1:23 PM 33.8 °F - 33.8 °F 100% 30.10 in 1.0 mi Calm Calm - 0.01 in Snow Light Snow
1:26 PM 33.8 °F 29.6 °F 33.8 °F 100% 30.10 in 0.2 mi Variable 4.6 mph - 0.01 in Fog , Snow Light Snow
1:53 PM 33.1 °F 28.7 °F 32.0 °F 96% 30.00 in - West 4.6 mph - 0.01 in   Overcast
2:17 PM 32.0 °F 27.5 °F 32.0 °F 100% 30.08 in 0.5 mi Variable 4.6 mph - 0.01 in Fog , Snow Light Snow
2:31 PM 33.8 °F - 32.0 °F 93% 30.08 in 1.8 mi Calm Calm - 0.01 in   Overcast
2:33 PM 33.8 °F 30.8 °F 33.8 °F 100% 30.08 in 3.0 mi Variable 3.5 mph - 0.01 in   Overcast
2:53 PM 33.1 °F 28.7 °F 32.0 °F 96% 29.99 in - Variable 4.6 mph - 0.01 in   Overcast
3:53 PM 33.1 °F 26.9 °F 32.0 °F 96% 29.99 in - Variable 6.9 mph - 0.00 in   Overcast
4:00 PM 33.8 °F 30.8 °F 32.0 °F 93% 30.07 in 10.0 mi Variable 3.5 mph - N/A   Overcast
4:20 PM 33.8 °F - 33.8 °F 100% 30.07 in 1.8 mi Calm Calm - N/A   Overcast
4:22 PM 33.8 °F 30.8 °F 33.8 °F 100% 30.07 in 0.8 mi Variable 3.5 mph - N/A   Overcast
4:26 PM 33.8 °F 28.6 °F 32.0 °F 93% 30.07 in 0.2 mi Variable 5.8 mph - 0.00 in Fog , Rain Light Rain
4:50 PM 32.0 °F 23.6 °F 30.2 °F 93% 30.06 in 0.8 mi West 10.4 mph 18.4 mph 0.00 in Snow Light Snow
4:53 PM 32.0 °F 24.8 °F 30.9 °F 96% 29.99 in 1.5 mi West 8.1 mph 18.4 mph 0.00 in Snow Light Snow
5:01 PM 32.0 °F - 30.2 °F 93% 30.06 in 3.0 mi Calm Calm - 0.00 in Snow Light Snow
5:10 PM 33.8 °F - 32.0 °F 93% 30.06 in 4.0 mi Calm Calm - 0.00 in   Overcast
5:12 PM 33.8 °F - 32.0 °F 93% 30.06 in 1.5 mi Calm Calm - 0.00 in   Overcast
5:21 PM 32.0 °F 28.7 °F 30.2 °F 93% 30.06 in 4.0 mi Variable 3.5 mph - 0.00 in   Overcast
5:53 PM 33.1 °F 28.7 °F 30.9 °F 92% 29.97 in 10.0 mi Variable 4.6 mph - 0.00 in   Overcast
5:57 PM 33.8 °F 30.8 °F 30.2 °F 87% 30.05 in 10.0 mi Variable 3.5 mph - N/A   Overcast
6:09 PM 33.8 °F 30.8 °F 30.2 °F 87% 30.05 in 10.0 mi Variable 3.5 mph - N/A   Overcast
6:53 PM 33.1 °F 28.7 °F 32.0 °F 96% 29.97 in 10.0 mi WSW 4.6 mph - N/A   Overcast
7:19 PM 33.8 °F 29.6 °F 32.0 °F 93% 30.05 in 1.8 mi Variable 4.6 mph - 0.00 in Snow Light Snow
7:25 PM 32.0 °F 27.5 °F 32.0 °F 100% 30.05 in - Variable 4.6 mph - 0.02 in Snow Snow
7:36 PM 30.2 °F 23.4 °F 30.2 °F 100% 30.06 in 0.2 mi Variable 6.9 mph - 0.05 in Fog , Snow Snow
7:53 PM 30.0 °F 23.2 °F 30.0 °F 100% 29.99 in 0.2 mi NNW 6.9 mph - 0.12 in Fog , Snow Heavy Snow
8:15 PM 30.2 °F 22.6 °F 30.2 °F 100% 30.05 in 0.5 mi WNW 8.1 mph - 0.04 in Fog , Snow Snow
8:22 PM 30.2 °F 26.7 °F 30.2 °F 100% 30.05 in - Variable 3.5 mph - 0.04 in Snow Light Snow
8:53 PM 30.9 °F 25.2 °F 30.9 °F 100% 29.98 in 9.0 mi Variable 5.8 mph - 0.04 in   Overcast
9:01 PM 30.2 °F 23.4 °F 30.2 °F 100% 30.05 in 10.0 mi Variable 6.9 mph - N/A   Overcast
9:17 PM 32.0 °F 24.8 °F 30.2 °F 93% 30.05 in 10.0 mi WSW 8.1 mph - N/A   Overcast
9:53 PM 32.0 °F 26.4 °F 30.0 °F 92% 29.96 in 10.0 mi WSW 5.8 mph - N/A   Overcast
10:53 PM 32.0 °F 26.4 °F 30.9 °F 96% 29.96 in - Variable 5.8 mph - N/A   Mostly Cloudy
11:20 PM 32.0 °F 27.5 °F 30.2 °F 93% 30.03 in 10.0 mi NW 4.6 mph - N/A   Overcast
11:28 PM 32.0 °F 28.7 °F 30.2 °F 93% 30.02 in 10.0 mi Variable 3.5 mph - N/A   Overcast
11:53 PM 32.0 °F 26.4 °F 30.9 °F 96% 29.94 in 10.0 mi Variable 5.8 mph - N/A   Overcast